Location: Unspecified
(35.7250°N, 0.0000°E)
Time: 22:47:37
(UTC+00:00)

Vanguard 1 Rocket - Pass Details

Date: 19 June 2019
Orbit: 651 x 4225 km, 34.3° (Epoch: 19 July)

Event Time Altitude Azimuth Distance (km) Brightness Sun altitude
Rises 13:37:53 0° 194° (SSW) 8,433 12.5 65.8°
Reaches altitude 10° 13:47:13 10° 179° (S) 7,136 12.2 64.0°
Maximum altitude 14:00:24 19° 144° (SE) 5,580 11.5 61.5°
Drops below altitude 10° 14:10:23 10° 107° (ESE) 5,334 11.2 59.6°
Sets 14:15:31 0° 91° (E) 5,743 11.2 58.5°
